TimeEDT,TemperatureF,Dew PointF,Humidity,Sea Level PressureIn,VisibilityMPH,Wind Direction,Wind SpeedMPH,Gust SpeedMPH,PrecipitationIn,Events,Conditions,WindDirDegrees,DateUTC
12:53 AM,68.0,63.0,84,30.04,10.0,SW,5.8,-,N/A,,Partly Cloudy,230,2012-11-02 04:53:00
1:53 AM,68.0,64.0,87,30.03,10.0,SW,8.1,-,N/A,,Partly Cloudy,230,2012-11-02 05:53:00
2:53 AM,68.0,64.0,87,30.03,10.0,WSW,4.6,-,N/A,,Partly Cloudy,240,2012-11-02 06:53:00
3:53 AM,68.0,64.9,90,30.01,10.0,WSW,3.5,-,N/A,,Partly Cloudy,250,2012-11-02 07:53:00
4:53 AM,68.0,64.9,90,30.01,10.0,West,3.5,-,N/A,,Clear,260,2012-11-02 08:53:00
5:53 AM,66.9,64.9,93,30.02,10.0,West,4.6,-,N/A,,Clear,270,2012-11-02 09:53:00
6:53 AM,66.9,64.9,93,30.04,10.0,Calm,Calm,-,N/A,,Partly Cloudy,0,2012-11-02 10:53:00
7:53 AM,66.9,64.9,93,30.05,10.0,Calm,Calm,-,N/A,,Partly Cloudy,0,2012-11-02 11:53:00
8:53 AM,70.0,66.9,90,30.06,10.0,WNW,6.9,-,N/A,,Partly Cloudy,290,2012-11-02 12:53:00
9:26 AM,71.6,66.2,83,30.08,10.0,NNW,6.9,-,N/A,,Mostly Cloudy,330,2012-11-02 13:26:00
9:30 AM,71.6,66.2,83,30.08,10.0,NW,6.9,-,N/A,,Mostly Cloudy,320,2012-11-02 13:30:00
9:53 AM,72.0,66.0,81,30.08,10.0,NW,6.9,-,N/A,,Scattered Clouds,310,2012-11-02 13:53:00
10:05 AM,71.6,64.4,78,30.08,10.0,NW,6.9,-,N/A,,Mostly Cloudy,310,2012-11-02 14:05:00
10:53 AM,71.1,64.9,81,30.10,10.0,NNW,9.2,-,N/A,,Mostly Cloudy,340,2012-11-02 14:53:00
11:17 AM,71.6,64.4,78,30.10,10.0,NNW,8.1,-,N/A,,Partly Cloudy,330,2012-11-02 15:17:00
11:53 AM,75.9,63.0,64,30.08,10.0,Variable,4.6,-,N/A,,Partly Cloudy,0,2012-11-02 15:53:00
12:53 PM,78.1,57.9,50,30.06,10.0,WNW,6.9,-,N/A,,Partly Cloudy,300,2012-11-02 16:53:00
1:53 PM,80.1,52.0,38,30.03,10.0,NNW,5.8,-,N/A,,Partly Cloudy,340,2012-11-02 17:53:00
2:53 PM,81.0,48.9,33,30.01,10.0,NNW,6.9,16.1,N/A,,Partly Cloudy,340,2012-11-02 18:53:00
3:53 PM,80.1,46.9,31,30.01,10.0,West,5.8,16.1,N/A,,Partly Cloudy,280,2012-11-02 19:53:00
4:53 PM,79.0,51.1,38,30.01,9.0,Variable,3.5,-,N/A,,Partly Cloudy,0,2012-11-02 20:53:00
5:53 PM,78.1,48.0,35,30.02,10.0,NW,6.9,-,N/A,,Partly Cloudy,310,2012-11-02 21:53:00
6:53 PM,75.0,45.0,34,30.03,10.0,NW,6.9,-,N/A,,Partly Cloudy,320,2012-11-02 22:53:00
7:53 PM,71.1,46.9,42,30.05,10.0,NNW,5.8,-,N/A,,Partly Cloudy,340,2012-11-02 23:53:00
8:53 PM,69.1,48.0,47,30.06,10.0,North,5.8,-,N/A,,Clear,10,2012-11-03 00:53:00
9:53 PM,70.0,48.9,47,30.07,10.0,NNW,3.5,-,N/A,,Clear,340,2012-11-03 01:53:00
10:53 PM,66.9,50.0,54,30.07,10.0,North,5.8,-,N/A,,Clear,10,2012-11-03 02:53:00
11:53 PM,66.9,52.0,59,30.08,10.0,Calm,Calm,-,N/A,,Clear,0,2012-11-03 03:53:00